Flag Weather past 2 weeks in Alfeld (Leine), Lower Saxony, Germany

Now
48 °F

Scattered clouds.


Feels Like: 45 °F
Forecast: 35 / 46 °F
Wind: 8 mph from Northwest

Location: Braunschweig

Current Time: Nov 24, 2014 at 1:42:22 PM

Latest Report: Nov 24, 2014 at 1:20 PM


Visibility: N/A

Pressure: 30.21 "Hg

Humidity: 87%

Dew point: 45 °F

Location of Alfeld (Leine)Location

Historic Weather in Alfeld (Leine) — Graph

°F

Alfeld (Leine) temperature yesterday

Maximum temperature yesterday: 54 °F (at 1:50 PM)
Minimum temperature yesterday: 37 °F (at 8:20 AM)
Average temperature yesterday: 46 °F

Past Weeks' High & Low Weather Summary

 TemperatureHumidityPressure
High55 °F (Nov 9, 12:50 PM)100% (Nov 9, 5:20 PM)30.36 "Hg (Nov 9, 5:20 PM)
Low34 °F (Nov 11, 6:50 AM)67% (Nov 9, 12:50 PM)29.50 "Hg (Nov 16, 1:20 PM)
Average47 °F96%29.94 "Hg
* Reported Nov 9 12:20 PM — Nov 24 12:50 PM, Alfeld (Leine), Weather by CustomWeather, © 2014

Note: Actual official high and low records may vary slightly from our data, if they occured in-between our weather recording intervals... More about our weather records

Advertising

Alfeld (Leine) weather history for previous 24 hours

 ConditionsComfort  
Time TempWeatherWind HumidityBarometerVisibility
12:50 PM
Nov 24
48 °FScattered clouds.9 mph87%30.21 "HgN/A
12:20 PM48 °FScattered clouds.10 mph87%30.21 "HgN/A
11:50 AM48 °FBroken clouds.10 mph87%30.18 "HgN/A
11:20 AM48 °FBroken clouds.12 mph87%30.18 "HgN/A
10:50 AM48 °FScattered clouds.12 mph94%30.18 "HgN/A
10:20 AM48 °FScattered clouds.13 mph94%30.15 "HgN/A
9:50 AM48 °FMore clouds than sun.17 mph94%30.15 "HgN/A
9:20 AM48 °FMostly cloudy.10 mph100%30.12 "HgN/A
8:50 AM48 °FLight rain. Cloudy.10 mph100%30.09 "Hg6 mi
8:20 AM48 °FLight rain. Mostly cloudy.8 mph100%30.09 "Hg5 mi
7:50 AM50 °FDrizzle. Mostly cloudy.8 mph100%30.09 "Hg5 mi
7:20 AM50 °FLight rain. Mostly cloudy.9 mph100%30.07 "HgN/A
6:50 AM50 °FDrizzle. Overcast.16 mph94%30.07 "HgN/A
5:20 PM
Nov 23
46 °FClear.5 mph100%30.07 "Hg10 mi
4:50 PM48 °FClear.No wind100%30.07 "Hg10 mi
4:20 PM48 °FClear.5 mph100%30.07 "Hg10 mi
3:50 PM52 °FSunny.3 mph88%30.09 "Hg10 mi
2:50 PM54 °FSunny.6 mph82%30.09 "Hg10 mi
2:20 PM54 °FPassing clouds.5 mph82%30.12 "HgN/A
1:50 PM54 °FSunny.6 mph82%30.12 "Hg10 mi
Weather by CustomWeather, © 2014

See weather overviewHow to use our weather pages